This is the latest recevied weather packets stored in our database for station/object OK1FRN-6. If no packets are shown the sender has not sent any weather packets the latest 10 day(s).
| Time | Temp. | Humidity | Pressure | Rain* | Wind** | Luminosity | Snow |
|---|---|---|---|---|---|---|---|
| 1777570226 | 15° C | 29% | 1029.1 hPa | - | - | - | - |
| 1777569919 | 15° C | 29% | 1029.1 hPa | - | - | - | - |
| 1777569614 | 15.56° C | 29% | 1029.1 hPa | - | - | - | - |
| 1777567470 | 16.11° C | 28% | 1029.1 hPa | - | - | - | - |
| 1777567164 | 16.11° C | 28% | 1029.1 hPa | - | - | - | - |
| 1777566858 | 16.11° C | 27% | 1029.2 hPa | - | - | - | - |
| 1777566245 | 16.11° C | 27% | 1029.2 hPa | - | - | - | - |
| 1777565326 | 16.67° C | 26% | 1029.4 hPa | - | - | - | - |
| 1777563488 | 16.67° C | 26% | 1029.6 hPa | - | - | - | - |
| 1777560731 | 17.22° C | 25% | 1029.9 hPa | - | - | - | - |
| 1777559199 | 16.67° C | 25% | 1030 hPa | - | - | - | - |
| 1777557973 | 17.78° C | 24% | 1030.3 hPa | - | - | - | - |
| 1777557667 | 17.78° C | 24% | 1030.3 hPa | - | - | - | - |
| 1777557054 | 17.78° C | 23% | 1030.3 hPa | - | - | - | - |
| 1777556748 | 17.78° C | 23% | 1030.4 hPa | - | - | - | - |
| 1777556135 | 17.78° C | 23% | 1030.3 hPa | - | - | - | - |
| 1777554909 | 17.78° C | 23% | 1030.5 hPa | - | - | - | - |
| 1777554603 | 17.78° C | 23% | 1030.6 hPa | - | - | - | - |
| 1777554296 | 17.78° C | 24% | 1030.7 hPa | - | - | - | - |
| 1777553990 | 17.78° C | 23% | 1030.7 hPa | - | - | - | - |
| 1777553377 | 17.78° C | 23% | 1030.7 hPa | - | - | - | - |
| 1777552764 | 17.22° C | 24% | 1030.8 hPa | - | - | - | - |
| 1777552458 | 17.22° C | 23% | 1030.9 hPa | - | - | - | - |
| 1777552151 | 17.22° C | 22% | 1030.8 hPa | - | - | - | - |
| 1777551845 | 17.78° C | 23% | 1030.9 hPa | - | - | - | - |
* Rain since midnight (hover to see other rain measurements)
** Current wind speed in m/s (hover to see current wind gust speed)